DG4CB-13 Weather Reports


time (UTC)temp
F
wind
direction
speed
knots
gust
knots
rain 1hr
in
rain 24hr
in
rain mn
in
humidity
%
barometer
mb
20260506131959 61 0.0 0.0 0.00 0.00 0.00 68 1003.8
20260506130959 62 0.0 0.0 0.00 0.00 0.00 62 1003.7
20260506125959 63 0.0 0.0 0.00 0.00 0.00 62 1003.7
20260506124959 63 0.0 0.0 0.00 0.00 0.00 60 1003.7
20260506123959 64 0.0 0.0 0.00 0.00 0.00 57 1003.5
20260506122959 64 0.0 0.0 0.00 0.00 0.00 57 1003.6
20260506121959 64 0.0 0.0 0.00 0.00 0.00 61 1003.7
20260506121000 63 0.0 0.0 0.00 0.00 0.00 62 1003.8
20260506115959 62 0.0 0.0 0.00 0.00 0.00 62 1003.8
20260506114959 62 0.0 0.0 0.00 0.00 0.00 61 1003.8
20260506113959 63 0.0 0.0 0.00 0.00 0.00 62 1003.8
20260506112959 63 0.0 0.0 0.00 0.00 0.00 63 1003.7
20260506111959 62 0.0 0.0 0.00 0.00 0.00 64 1003.7
20260506110959 62 0.0 0.0 0.00 0.00 0.00 62 1003.8
20260506105959 62 0.0 0.0 0.00 0.00 0.00 65 1003.7
20260506104959 62 0.0 0.0 0.00 0.00 0.00 65 1003.6
20260506104000 62 0.0 0.0 0.00 0.00 0.00 65 1003.6
20260506103000 62 0.0 0.0 0.00 0.00 0.00 67 1003.7
20260506102000 61 0.0 0.0 0.00 0.00 0.00 66 1003.7
20260506101000 61 0.0 0.0 0.00 0.00 0.00 67 1003.7
20260506100000 61 0.0 0.0 0.00 0.00 0.00 68 1003.7
20260506095000 60 0.0 0.0 0.00 0.00 0.00 70 1003.7
20260506094000 60 0.0 0.0 0.00 0.00 0.00 71 1003.8
20260506093000 60 0.0 0.0 0.00 0.00 0.00 72 1003.6
20260506092000 60 0.0 0.0 0.00 0.00 0.00 71 1003.5
20260506091000 60 0.0 0.0 0.00 0.00 0.00 74 1003.5
20260506090000 59 0.0 0.0 0.00 0.00 0.00 78 1003.4
20260506085000 58 0.0 0.0 0.00 0.00 0.00 78 1003.5
20260506084000 58 0.0 0.0 0.00 0.00 0.00 81 1003.6
20260506083000 57 0.0 0.0 0.00 0.00 0.00 81 1003.4
20260506082000 57 0.0 0.0 0.00 0.00 0.00 81 1003.4
20260506081000 57 0.0 0.0 0.00 0.00 0.00 82 1003.4
20260506073000 56 0.0 0.0 0.00 0.00 0.00 85 1003.3
20260506072000 56 0.0 0.0 0.00 0.00 0.00 85 1003.3
20260506071000 56 0.0 0.0 0.00 0.00 0.00 86 1003.4
20260506062000 55 0.0 0.0 0.00 0.00 0.00 89 1003.2
20260506061000 55 0.0 0.0 0.00 0.00 0.00 89 1003.2
20260506051000 54 0.0 0.0 0.00 0.00 0.00 94 1003.2
20260506045000 54 0.0 0.0 0.00 0.00 0.00 94 1003.2
20260506044000 54 0.0 0.0 0.00 0.00 0.00 94 1003.3
20260506043000 54 0.0 0.0 0.00 0.00 0.00 93 1003.2
20260506042000 54 0.0 0.0 0.00 0.00 0.00 93 1003.3
20260506041000 54 0.0 0.0 0.00 0.00 0.00 93 1003.2
20260506040000 54 0.0 0.0 0.00 0.00 0.00 93 1003.2
20260506035000 54 0.0 0.0 0.00 0.00 0.00 93 1003.2
20260506034000 54 0.0 0.0 0.00 0.00 0.00 92 1003.2
20260506033000 55 0.0 0.0 0.00 0.00 0.00 90 1003.2
20260506032000 55 0.0 0.0 0.00 0.00 0.00 89 1003.2
20260506031000 55 0.0 0.0 0.00 0.00 0.00 89 1003.3
20260506030000 55 0.0 0.0 0.00 0.00 0.00 89 1003.3
20260506025000 55 0.0 0.0 0.00 0.00 0.00 89 1003.3
20260506024000 55 0.0 0.0 0.00 0.00 0.00 89 1003.4
20260506023000 55 0.0 0.0 0.00 0.00 0.00 89 1003.3
20260506022000 55 0.0 0.0 0.00 0.00 0.00 89 1003.5
20260506021000 56 0.0 0.0 0.00 0.00 0.00 89 1003.6
20260506020000 56 0.0 0.0 0.00 0.00 0.00 89 1003.6
20260506015000 56 0.0 0.0 0.00 0.00 0.00 89 1003.6
20260506014000 56 0.0 0.0 0.00 0.00 0.00 89 1003.6
20260506013000 56 0.0 0.0 0.00 0.00 0.00 89 1003.7
20260506012000 56 0.0 0.0 0.00 0.00 0.00 89 1003.8
20260506011000 56 0.0 0.0 0.00 0.00 0.00 89 1003.8
20260506010000 56 0.0 0.0 0.00 0.00 0.00 89 1003.8
20260506005000 56 0.0 0.0 0.00 0.00 0.00 89 1003.9
20260506004000 56 0.0 0.0 0.00 0.00 0.00 89 1004.0
20260506003000 56 0.0 0.0 0.00 0.00 0.00 89 1004.0
20260506002000 57 0.0 0.0 0.00 0.00 0.00 89 1004.1
20260506001000 57 0.0 0.0 0.00 0.00 0.00 88 1004.1
20260506000000 57 0.0 0.0 0.00 0.00 0.00 88 1004.2
20260505235000 57 0.0 0.0 0.00 0.00 0.00 87 1004.3
20260505234000 57 0.0 0.0 0.00 0.00 0.00 88 1004.4
20260505233000 57 0.0 0.0 0.00 0.00 0.00 87 1004.4
20260505232000 57 0.0 0.0 0.00 0.00 0.00 87 1004.6
20260505231000 57 0.0 0.0 0.00 0.00 0.00 86 1004.6
20260505230000 58 0.0 0.0 0.00 0.00 0.00 86 1004.6
20260505225000 58 0.0 0.0 0.00 0.00 0.00 86 1004.7
20260505224000 58 0.0 0.0 0.00 0.00 0.00 86 1004.8
20260505223000 58 0.0 0.0 0.00 0.00 0.00 87 1004.9
20260505222000 58 0.0 0.0 0.00 0.00 0.00 87 1005.0
20260505221000 58 0.0 0.0 0.00 0.00 0.00 87 1004.9
20260505220000 58 0.0 0.0 0.00 0.00 0.00 87 1005.0
20260505215000 58 0.0 0.0 0.00 0.00 0.00 87 1005.0
20260505214000 58 0.0 0.0 0.00 0.00 0.00 87 1005.1
20260505213000 58 0.0 0.0 0.00 0.00 0.00 87 1005.1
20260505212000 58 0.0 0.0 0.00 0.00 0.00 87 1005.2
20260505211000 58 0.0 0.0 0.00 0.00 0.00 87 1005.2
20260505210000 58 0.0 0.0 0.00 0.00 0.00 86 1005.3
20260505205000 58 0.0 0.0 0.00 0.00 0.00 86 1005.3
20260505204000 58 0.0 0.0 0.00 0.00 0.00 86 1005.3
20260505203000 59 0.0 0.0 0.00 0.00 0.00 86 1005.4
20260505202000 59 0.0 0.0 0.00 0.00 0.00 84 1005.4
20260505201000 59 0.0 0.0 0.00 0.00 0.00 84 1005.4
20260505200000 59 0.0 0.0 0.00 0.00 0.00 84 1005.3
20260505195000 59 0.0 0.0 0.00 0.00 0.00 84 1005.4
20260505194000 59 0.0 0.0 0.00 0.00 0.00 84 1005.4
20260505193000 59 0.0 0.0 0.00 0.00 0.00 84 1005.3
20260505192000 59 0.0 0.0 0.00 0.00 0.00 83 1005.3
20260505191000 60 0.0 0.0 0.00 0.00 0.00 82 1005.2
20260505190000 60 0.0 0.0 0.00 0.00 0.00 81 1005.2
20260505185000 60 0.0 0.0 0.00 0.00 0.00 81 1005.3
20260505184000 60 0.0 0.0 0.00 0.00 0.00 81 1005.3
20260505183000 60 0.0 0.0 0.00 0.00 0.00 80 1005.3
20260505182000 61 0.0 0.0 0.00 0.00 0.00 79 1005.4
20260505181000 61 0.0 0.0 0.00 0.00 0.00 79 1005.4
20260505180000 61 0.0 0.0 0.00 0.00 0.00 79 1005.5
20260505175000 61 0.0 0.0 0.00 0.00 0.00 79 1005.4
20260505174000 61 0.0 0.0 0.00 0.00 0.00 77 1005.4
20260505173000 61 0.0 0.0 0.00 0.00 0.00 76 1005.4
20260505172000 61 0.0 0.0 0.00 0.00 0.00 76 1005.3
20260505171000 61 0.0 0.0 0.00 0.00 0.00 77 1005.3
20260505165959 61 0.0 0.0 0.00 0.00 0.00 76 1005.4
20260505164959 61 0.0 0.0 0.00 0.00 0.00 77 1005.5
20260505163959 61 0.0 0.0 0.00 0.00 0.00 77 1005.5
20260505162959 61 0.0 0.0 0.00 0.00 0.00 77 1005.7
20260505161959 61 0.0 0.0 0.00 0.00 0.00 76 1005.6
20260505161000 62 0.0 0.0 0.00 0.00 0.00 72 1005.4
20260505153000 69 0.0 0.0 0.00 0.00 0.00 52 1005.1
20260505152000 70 0.0 0.0 0.00 0.00 0.00 48 1004.8
20260505151000 70 0.0 0.0 0.00 0.00 0.00 46 1004.9